When you browse on this site, cookies collect data to enhance your experience and personalize the content and advertising you see.
Visit our Privacy Policy to learn more. By continuing to use the site, you agree to this use of cookies and data.
  • In United Kingdom
  • List of Countries
  • For 7 days
  • Water Temperature
  • Satellite Maps
  • Weather Map
  • Weather Widgets
  • user-avatar
    Login

    Hourly Weather Wien

    Today, 20 July, Saturday

    Time Temperature Precipitation Wind Pressure Humidity
    00:00 +21°C° 0.1 mm 1 mps 744 mmHg 70%
    01:00 +19°C° 0 mm 0 mps 744 mmHg 73%
    02:00 +19°C° 0 mm 0 mps 744 mmHg 75%
    03:00 +18°C° 0 mm 0 mps 744 mmHg 77%
    04:00 +20°C° 0 mm 1 mps 744 mmHg 79%
    05:00 +19°C° 0 mm 0 mps 744 mmHg 75%
    06:00 +20°C° 0 mm 0 mps 744 mmHg 72%
    07:00 +21°C° 0 mm 0 mps 744 mmHg 69%
    08:00 +24°C° 0 mm 1 mps 744 mmHg 63%
    09:00 +26°C° 0 mm 1 mps 744 mmHg 57%
    10:00 +28°C° 0 mm 1 mps 744 mmHg 51%
    11:00 +29°C° 0 mm 2 mps 744 mmHg 47%
    12:00 +31°C° 0 mm 2 mps 744 mmHg 42%
    13:00 +32°C° 0 mm 2 mps 743 mmHg 38%
    14:00 +34°C° 0 mm 2 mps 743 mmHg 37%
    15:00 +34°C° 0 mm 2 mps 743 mmHg 35%
    16:00 +34°C° 0 mm 1 mps 743 mmHg 34%
    17:00 +32°C° 0 mm 2 mps 743 mmHg 39%
    18:00 +31°C° 0 mm 2 mps 743 mmHg 44%
    19:00 +29°C° 0 mm 2 mps 743 mmHg 49%
    20:00 +28°C° 0 mm 2 mps 743 mmHg 53%
    21:00 +27°C° 0 mm 2 mps 744 mmHg 57%
    22:00 +26°C° 0 mm 1 mps 744 mmHg 60%
    23:00 +25°C° 0 mm 1 mps 744 mmHg 62%

    Tomorrow, 21 July, Sunday

    Time Temperature Precipitation Wind Pressure Humidity
    00:00 +25°C° 0 mm 1 mps 744 mmHg 63%
    01:00 +24°C° 0 mm 1 mps 744 mmHg 65%
    02:00 +24°C° 0 mm 1 mps 744 mmHg 66%
    03:00 +23°C° 0 mm 1 mps 744 mmHg 68%
    04:00 +21°C° 0 mm 0 mps 744 mmHg 69%
    05:00 +24°C° 0.1 mm 1 mps 744 mmHg 68%
    06:00 +25°C° 0.1 mm 2 mps 745 mmHg 66%
    07:00 +25°C° 0.1 mm 3 mps 745 mmHg 65%
    08:00 +26°C° 0 mm 3 mps 745 mmHg 62%
    09:00 +27°C° 0 mm 3 mps 746 mmHg 60%
    10:00 +28°C° 0 mm 3 mps 746 mmHg 57%
    11:00 +28°C° 0 mm 5 mps 746 mmHg 55%
    12:00 +28°C° 0 mm 6 mps 746 mmHg 54%
    13:00 +29°C° 0 mm 8 mps 746 mmHg 52%
    14:00 +28°C° 0.1 mm 7 mps 746 mmHg 53%
    15:00 +27°C° 0.1 mm 6 mps 746 mmHg 55%
    16:00 +27°C° 0.1 mm 5 mps 746 mmHg 57%
    17:00 +26°C° 0.5 mm 4 mps 747 mmHg 62%
    18:00 +26°C° 0.5 mm 3 mps 747 mmHg 67%
    19:00 +25°C° 0.5 mm 3 mps 747 mmHg 72%
    20:00 +24°C° 0.3 mm 3 mps 747 mmHg 74%
    21:00 +22°C° 0.3 mm 3 mps 748 mmHg 75%
    22:00 +22°C° 0.3 mm 3 mps 748 mmHg 77%
    23:00 +21°C° 0 mm 3 mps 748 mmHg 77%

    Day after tomorrow, 22 July, Monday

    Time Temperature Precipitation Wind Pressure Humidity
    00:00 +21°C° 0 mm 3 mps 748 mmHg 78%
    01:00 +20°C° 0 mm 3 mps 748 mmHg 78%
    02:00 +20°C° 0 mm 3 mps 749 mmHg 79%
    03:00 +19°C° 0 mm 3 mps 749 mmHg 80%
    04:00 +19°C° 0 mm 2 mps 749 mmHg 80%
    05:00 +20°C° 0 mm 3 mps 749 mmHg 77%
    06:00 +20°C° 0 mm 3 mps 749 mmHg 74%
    07:00 +21°C° 0 mm 3 mps 749 mmHg 71%
    08:00 +22°C° 0 mm 3 mps 750 mmHg 65%
    09:00 +25°C° 0 mm 3 mps 750 mmHg 58%
    10:00 +26°C° 0 mm 3 mps 750 mmHg 51%
    11:00 +27°C° 0 mm 4 mps 750 mmHg 47%
    12:00 +28°C° 0 mm 4 mps 749 mmHg 43%
    13:00 +29°C° 0 mm 4 mps 749 mmHg 39%
    14:00 +29°C° 0 mm 4 mps 749 mmHg 39%
    15:00 +29°C° 0 mm 4 mps 749 mmHg 40%
    16:00 +29°C° 0 mm 4 mps 749 mmHg 40%
    17:00 +28°C° 0 mm 3 mps 749 mmHg 45%
    18:00 +27°C° 0 mm 3 mps 748 mmHg 50%
    19:00 +26°C° 0 mm 2 mps 748 mmHg 55%
    20:00 +25°C° 0 mm 2 mps 749 mmHg 58%
    21:00 +23°C° 0 mm 2 mps 749 mmHg 60%
    22:00 +22°C° 0 mm 1 mps 749 mmHg 63%
    23:00 +22°C° 0 mm 1 mps 749 mmHg 64%

    23 July, Tuesday

    Time Temperature Precipitation Wind Pressure Humidity
    00:00 +22°C° 0 mm 1 mps 749 mmHg 65%
    01:00 +22°C° 0 mm 1 mps 749 mmHg 66%
    02:00 +21°C° 0 mm 1 mps 749 mmHg 68%
    03:00 +21°C° 0 mm 1 mps 749 mmHg 69%
    04:00 +20°C° 0 mm 1 mps 749 mmHg 71%
    05:00 +20°C° 0 mm 2 mps 749 mmHg 68%
    06:00 +21°C° 0 mm 2 mps 749 mmHg 64%
    07:00 +23°C° 0 mm 2 mps 749 mmHg 60%
    08:00 +24°C° 0 mm 2 mps 749 mmHg 54%
    09:00 +26°C° 0 mm 3 mps 748 mmHg 48%
    10:00 +27°C° 0 mm 3 mps 748 mmHg 42%
    11:00 +28°C° 0 mm 3 mps 748 mmHg 40%
    12:00 +29°C° 0 mm 3 mps 748 mmHg 39%
    13:00 +30°C° 0 mm 4 mps 747 mmHg 38%
    14:00 +30°C° 0 mm 3 mps 747 mmHg 39%
    15:00 +30°C° 0 mm 3 mps 747 mmHg 39%
    16:00 +30°C° 0 mm 3 mps 747 mmHg 40%
    17:00 +29°C° 0 mm 3 mps 746 mmHg 44%
    18:00 +28°C° 0 mm 3 mps 746 mmHg 49%
    19:00 +27°C° 0 mm 2 mps 746 mmHg 54%
    20:00 +26°C° 0 mm 2 mps 747 mmHg 59%
    21:00 +24°C° 0 mm 1 mps 747 mmHg 63%
    22:00 +23°C° 0 mm 1 mps 747 mmHg 68%
    23:00 +22°C° 0 mm 1 mps 747 mmHg 69%

    24 July, Wednesday

    Time Temperature Precipitation Wind Pressure Humidity
    00:00 +22°C° 0 mm 1 mps 747 mmHg 70%
    01:00 +19°C° 0 mm 0 mps 747 mmHg 72%
    02:00 +19°C° 0 mm 0 mps 747 mmHg 73%
    03:00 +21°C° 0 mm 1 mps 746 mmHg 74%
    04:00 +20°C° 0 mm 1 mps 746 mmHg 76%
    05:00 +21°C° 0 mm 1 mps 746 mmHg 71%
    06:00 +23°C° 0 mm 1 mps 746 mmHg 67%
    07:00 +24°C° 0 mm 1 mps 747 mmHg 63%
    08:00 +25°C° 0 mm 1 mps 747 mmHg 57%
    09:00 +27°C° 0 mm 2 mps 747 mmHg 52%
    10:00 +29°C° 0 mm 2 mps 746 mmHg 47%
    11:00 +30°C° 0 mm 2 mps 746 mmHg 44%
    12:00 +31°C° 0 mm 2 mps 746 mmHg 41%
    13:00 +32°C° 0 mm 2 mps 746 mmHg 38%
    14:00 +33°C° 0 mm 3 mps 746 mmHg 38%
    15:00 +33°C° 0 mm 3 mps 745 mmHg 38%
    16:00 +33°C° 0 mm 3 mps 745 mmHg 38%
    17:00 +31°C° 0 mm 3 mps 745 mmHg 44%
    18:00 +29°C° 0 mm 3 mps 745 mmHg 50%
    19:00 +28°C° 0 mm 2 mps 745 mmHg 55%
    20:00 +27°C° 0 mm 2 mps 746 mmHg 59%
    21:00 +26°C° 0 mm 2 mps 746 mmHg 63%
    22:00 +24°C° 0 mm 1 mps 746 mmHg 67%
    23:00 +24°C° 0 mm 1 mps 746 mmHg 69%

    25 July, Thursday

    Time Temperature Precipitation Wind Pressure Humidity
    00:00 +23°C° 0 mm 1 mps 746 mmHg 72%
    01:00 +23°C° 0 mm 1 mps 746 mmHg 74%
    02:00 +22°C° 0 mm 1 mps 746 mmHg 76%
    03:00 +22°C° 0 mm 1 mps 746 mmHg 79%
    04:00 +21°C° 0 mm 1 mps 746 mmHg 81%
    05:00 +22°C° 0 mm 1 mps 746 mmHg 77%
    06:00 +23°C° 0 mm 1 mps 746 mmHg 72%
    07:00 +24°C° 0 mm 1 mps 747 mmHg 68%
    08:00 +26°C° 0 mm 1 mps 747 mmHg 61%
    09:00 +28°C° 0 mm 1 mps 747 mmHg 54%
    10:00 +30°C° 0 mm 2 mps 747 mmHg 47%
    11:00 +31°C° 0 mm 2 mps 747 mmHg 43%
    12:00 +33°C° 0 mm 3 mps 746 mmHg 39%
    13:00 +34°C° 0 mm 3 mps 746 mmHg 35%
    14:00 +34°C° 0 mm 3 mps 746 mmHg 35%
    15:00 +34°C° 0 mm 3 mps 745 mmHg 34%
    16:00 +35°C° 0 mm 3 mps 745 mmHg 33%
    17:00 +33°C° 0 mm 3 mps 745 mmHg 38%
    18:00 +31°C° 0 mm 3 mps 745 mmHg 43%
    19:00 +29°C° 0 mm 3 mps 745 mmHg 48%
    20:00 +28°C° 0 mm 3 mps 745 mmHg 51%
    21:00 +27°C° 0 mm 3 mps 745 mmHg 53%
    22:00 +26°C° 0 mm 3 mps 746 mmHg 55%
    23:00 +26°C° 0 mm 3 mps 745 mmHg 58%
    Show more